Retour au catalogue

STARLINK-31641

ActifCommunicationsVLEO
NORAD 59374·PAYLOAD·🇺🇸 United States

Lancé Apr 2, 2024 depuis Vandenberg Space Force Base

Loading…

Prochains Passages (prochaines 24 heures)

TLE

FraisSource: CelesTrak SupGP

Époque: Sep 14, 2026, 22:21 UTC

1 59374C 24062A   26257.93173611  .00032052  00000+0  94701-3 0  2577
2 59374  53.1583  95.4218 0001346  82.1272 246.1240 15.34373422    14

Suivez STARLINK-31641 en temps réel avec AllMySat

Download on the App Store